| |
Missouri Department of Transportation

Social Media Facebook Twitter Flickr Blog YouTube RSS

Current AWOS Information

 
AWOS Home - General Info for all Airports
Current AWOS for all Airports - Current METAR for all Airports
Glossary - Disclaimer - Other Links


LEBANON--FLOYD W JONES LEBANON--KLBO
 
Recent AWOS History
 
10/31/14     03:32 PM CDT      20:32 GMT
Air Temperature 46°F (8°C ) 1st Cloud Layer Clear
Dew Point 20°F (-7°C) 2nd Cloud Layer  
Barometric Pressure 30.34 in Hg. 3rd Cloud Layer  
Wind Speed 12 mph (11 knots) Density Altitude  
Peak Wind Gusts 22 mph (20 knots) Variable Wind Directions  
Wind Direction Quadrant(350°) Variable Visibility  
Visibility 10 statute miles  

Thunderstorm and Precipitation Identification: 
Thunderstorm Remarks: 

Current METAR Record: METAR KLBO 312035Z AUTO 01011G20KT 320V030 10SM CLR 08/M07 A3034 RMK AO2

 

 

 

About Us
How Do I...
Contact Us
Missouri Department of Transportation
Central Office
105 W. Capitol Avenue
Jefferson City, MO 65102
1-888-ASK-MODOT (275-6636)
1-866-831-6277 (Motor Carrier Services)
Drivers License Offices
horz_bar
| | |
Missouri State Government
© 2013 Missouri Department of Transportation. All Rights Reserved.   Privacy Policy.
 
 
 
 
RSS FeedYoutubeBlogFlickrTwitter Facebook